• Join FlightAware (Why Join?)
  • Login
  • US Flag 
12:45AM EDT


 

Airport Tracker/Info


-or-


 

Live Flight TrackerFlight Track Log ✈ DAL268 ✈ 27-May-2013 ✈ KJFK - LLBG / TLV

Flight Track Log - Related Links

Times and Time Zones

All times are in EDT time to prevent confusion due to time zone crossing. See the DAL268 flight status page for this flight to view local times or setup timezone preferences in your user account.

Time Position Orientation Groundspeed Altitude Reporting Facility
EDT Latitude Longitude Course Direction KTS MPH feet Rate Location/Type
11:46PM 40.6370 -73.7790 North 2 2  Level FlightAware
11:47PM 40.6380 -73.7790 360° North 9 10  Level FlightAware
11:49PM 40.5432 -73.4962 114° Southeast  Level FlightAware Approximate
11:49PM 40.6370 -73.7790 114° Southeast 10 12  Level FlightAware
11:50PM 40.6360 -73.7790 180° South 2 2  Level FlightAware
11:53PM 40.5105 -73.4043 123° Southeast  Level FlightAware Approximate
11:54PM 40.4615 -73.2409 105° East  Level FlightAware Approximate
11:55PM 40.4053 -73.0790 119° Southeast  Level FlightAware Approximate
11:56PM 40.3977 -72.9092 72° East  Level FlightAware Approximate
11:57PM 40.4333 -72.7367 90° East  Level FlightAware Approximate
11:57PM 40.6350 -73.7790 217° Southwest 19 22  Level FlightAware
11:58PM 40.6340 -73.7810 237° Southwest 26 30  Level FlightAware
11:59PM 40.6350 -73.7830 303° West 32 37  Level FlightAware
11:59PM 40.6370 -73.7860 311° West 30 35  Level FlightAware
12:00AM 40.6370 -73.7870 270° West 26 30  Level FlightAware
12:00AM 40.6380 -73.7900 294° West 30 35  Level FlightAware
12:01AM 40.6400 -73.7930 311° West 15 17  Level FlightAware
12:02AM 40.6410 -73.7960 294° West 34 39  Level FlightAware
12:02AM 40.6420 -73.7990 294° West 28 32  Level FlightAware
12:03AM 40.6430 -73.8010 303° West 32 37  Level FlightAware
12:04AM 40.6450 -73.8040 311° West 34 39  Level FlightAware
12:05AM 40.6460 -73.8090 285° West 31 36  Level FlightAware
12:05AM 40.6500 -73.8100 349° North 28 32  Level FlightAware
12:06AM 40.6480 -73.8130 229° Southwest 27 31  Level FlightAware
12:06AM 40.6490 -73.8140 323° Northwest 24 28 60 Level FlightAware
12:08AM 40.6480 -73.8160 237° Southwest 11 13 60 Level FlightAware
12:09AM 40.6360 -73.7890 120° Southeast 120 Level FlightAware
12:09AM 40.6270 -73.7700 122° Southeast 187 215 200 1,020 Climbing FlightAware
12:09AM 40.6120 -73.7430 126° Southeast 200 230 800 1,500 Climbing FlightAware
12:10AM 40.6000 -73.7300 141° Southeast 201 231 1,300 1,020 Climbing FlightAware
12:10AM 40.5780 -73.7060 140° Southeast 236 272 1,600 720 Climbing FlightAware
12:11AM 40.5650 -73.6820 125° Southeast 257 296 1,900 960 Climbing FlightAware
12:11AM 40.5600 -73.6440 100° East 274 315 2,300 1,260 Climbing FlightAware
12:11AM 40.5610 -73.6030 88° East 287 330 2,900 1,920 Climbing FlightAware
12:12AM 40.5630 -73.5530 87° East 291 335 4,000 2,160 Climbing FlightAware
12:12AM 40.5607 -73.5100 94° East 303 349 4,800 2,040 Climbing FlightAware ADS-B
12:12AM 40.5589 -73.5011 105° East 304 350 5,000 2,760 Climbing FlightAware ADS-B
12:12AM 40.5548 -73.4836 107° East 300 345 5,500 3,000 Climbing FlightAware ADS-B
12:13AM 40.5499 -73.4666 111° Southeast 297 342 6,000 2,280 Climbing FlightAware ADS-B
12:13AM 40.5412 -73.4396 113° Southeast 305 351 6,500 1,980 Climbing FlightAware ADS-B
12:13AM 40.5315 -73.4103 114° Southeast 313 360 7,100 2,160 Climbing FlightAware ADS-B
12:13AM 40.5219 -73.3825 114° Southeast 314 361 7,700 1,980 Climbing FlightAware ADS-B
12:14AM 40.5110 -73.3483 113° Southeast 322 371 8,300 1,800 Climbing FlightAware ADS-B
12:14AM 40.5096 -73.3408 104° East 322 371 8,400 2,520 Climbing FlightAware ADS-B
12:14AM 40.5086 -73.3329 99° East 325 374 8,600 2,220 Climbing FlightAware ADS-B
12:14AM 40.5077 -73.3250 99° East 327 376 8,700 1,980 Climbing FlightAware ADS-B
12:14AM 40.5073 -73.3171 94° East 327 376 8,900 2,280 Climbing FlightAware ADS-B
12:14AM 40.5077 -73.2993 88° East 326 375 9,200 2,400 Climbing FlightAware ADS-B
12:14AM 40.5090 -73.2875 82° East 326 375 9,500 2,400 Climbing FlightAware ADS-B
12:14AM 40.5120 -73.2721 76° East 325 374 9,800 2,100 Climbing FlightAware ADS-B
12:15AM 40.5151 -73.2609 70° East 325 374 10,000 1,980 Climbing FlightAware ADS-B
12:15AM 40.5219 -73.2432 63° Northeast 328 377 10,300 1,200 Climbing FlightAware ADS-B
12:15AM 40.5362 -73.2165 55° Northeast 340 391 10,500 900 Climbing FlightAware ADS-B
12:15AM 40.5553 -73.1910 45° Northeast 350 403 10,800 1,200 Climbing FlightAware ADS-B
12:16AM 40.5901 -73.1522 40° Northeast 371 427 11,400 1,380 Climbing FlightAware ADS-B
12:16AM 40.6087 -73.1285 44° Northeast 381 438 11,800 1,320 Climbing FlightAware ADS-B
12:16AM 40.6350 -73.0924 46° Northeast 397 457 12,200 1,500 Climbing FlightAware ADS-B
12:17AM 40.6727 -73.0370 48° Northeast 411 473 13,100 1,920 Climbing FlightAware ADS-B
12:17AM 40.7064 -72.9825 51° Northeast 418 481 14,100 2,160 Climbing FlightAware ADS-B
12:18AM 40.7448 -72.9172 52° Northeast 426 490 15,300 2,280 Climbing FlightAware ADS-B
12:18AM 40.7832 -72.8533 52° Northeast 431 496 16,500 2,040 Climbing FlightAware ADS-B
12:19AM 40.8204 -72.7899 52° Northeast 441 507 17,400 1,920 Climbing FlightAware ADS-B
12:19AM 40.8596 -72.7237 52° Northeast 445 512 18,500 2,040 Climbing FlightAware ADS-B
12:20AM 40.8988 -72.6598 51° Northeast 450 518 19,500 1,860 Climbing FlightAware ADS-B
12:20AM 40.9384 -72.5948 51° Northeast 455 524 20,400 1,620 Climbing FlightAware ADS-B
12:21AM 40.9777 -72.5287 52° Northeast 461 531 21,200 1,680 Climbing FlightAware ADS-B
12:21AM 41.0180 -72.4591 52° Northeast 465 535 22,100 1,680 Climbing FlightAware ADS-B
12:22AM 41.0621 -72.3842 52° Northeast 471 542 23,000 1,500 Climbing FlightAware ADS-B
12:23AM 41.1210 -72.2831 52° Northeast 478 550 24,100 1,500 Climbing FlightAware ADS-B
12:23AM 41.1621 -72.2135 52° Northeast 480 552 24,900 1,500 Climbing FlightAware ADS-B
12:24AM 41.1390 -72.2530 232° Southwest 483 556 26,000 1,380 Climbing FlightAware
12:24AM 41.2700 -72.0280 52° Northeast 487 560 26,800 1,200 Climbing FlightAware
12:25AM 41.3240 -71.9350 52° Northeast 490 564 27,500 960 Climbing FlightAware
12:26AM 41.3850 -71.8310 52° Northeast 500 575 28,200 1,080 Climbing FlightAware
12:27AM 41.4590 -71.7030 52° Northeast 504 580 29,300 1,260 Climbing FlightAware
12:27AM 41.5250 -71.5870 53° Northeast 503 579 30,300 1,380 Climbing FlightAware
12:28AM 41.5810 -71.4890 53° Northeast 499 574 31,300 1,380 Climbing FlightAware
12:29AM 41.6440 -71.3770 53° Northeast 494 568 32,300 1,200 Climbing FlightAware
12:30AM 41.7000 -71.2800 52° Northeast 493 567 33,000 480 Climbing FlightAware
12:30AM 41.7560 -71.1830 52° Northeast 494 568 33,000  Level FlightAware
12:31AM 41.8090 -71.0870 53° Northeast 492 566 33,000  Level FlightAware
12:32AM 41.8710 -70.9780 53° Northeast 489 563 33,000  Level FlightAware
12:32AM 41.9320 -70.8670 54° Northeast 486 559 33,000  Level FlightAware
12:33AM 41.9850 -70.7730 53° Northeast 486 559 33,000  Level FlightAware
12:34AM 42.0450 -70.6670 53° Northeast 486 559 33,000  Level FlightAware
12:34AM 42.0990 -70.5670 54° Northeast 489 563 33,000  Level FlightAware
12:35AM 42.1620 -70.4540 53° Northeast 492 566 33,000  Level FlightAware
12:36AM 42.2140 -70.3610 53° Northeast 493 567 33,000  Level FlightAware
12:36AM 42.2610 -70.2740 54° Northeast 493 567 33,000  Level FlightAware
12:37AM 42.3260 -70.1580 53° Northeast 493 567 33,000  Level FlightAware
12:38AM 42.3790 -70.0590 54° Northeast 492 566 33,000  Level FlightAware
12:39AM 42.4390 -69.9500 53° Northeast 491 565 33,000  Level FlightAware
12:39AM 42.4930 -69.8510 53° Northeast 491 565 33,000  Level FlightAware
12:40AM 42.5510 -69.7440 54° Northeast 492 566 33,000  Level FlightAware
12:41AM 42.6050 -69.6410 55° Northeast 494 568 33,000  Level FlightAware
12:41AM 42.6660 -69.5280 54° Northeast 494 568 33,000  Level FlightAware
12:42AM 42.7450 -69.3800 54° Northeast 495 570 33,000  Level FlightAware
12:43AM 42.7990 -69.2790 54° Northeast 497 572 33,000  Level FlightAware
12:44AM 42.8540 -69.1740 54° Northeast 498 573 33,000  Level FlightAware
12:44AM 42.9060 -69.0780 53° Northeast 495 570 33,000  Level FlightAware
12:45AM 42.9650 -68.9640 55° Northeast 494 568 33,000  Level FlightAware
12:46AM 43.0100 -68.8810 53° Northeast 494 568 33,000  Level FlightAware
12:47AM 43.0790 -68.7460 55° Northeast 488 562 33,000  Level FlightAware
12:47AM 43.1310 -68.6460 55° Northeast 488 562 33,000  Level FlightAware
12:48AM 43.1780 -68.5550 55° Northeast 488 562 33,000  Level FlightAware
12:49AM 43.2180 -68.4770 55° Northeast 488 562 33,000  Level FlightAware
12:52AM 43.4690 -67.9900 55° Northeast 484 557 33,000  Level FlightAware
12:52AM 43.5140 -67.9000 55° Northeast 484 557 33,000  Level FlightAware
12:53AM 43.5720 -67.7860 55° Northeast 482 555 33,000  Level FlightAware
12:54AM 43.6230 -67.6850 55° Northeast 482 555 33,000  Level FlightAware
12:54AM 43.6800 -67.5710 55° Northeast 481 554 33,000  Level FlightAware
12:55AM 43.7310 -67.4680 56° Northeast 481 554 33,000  Level FlightAware
12:56AM 43.7810 -67.3690 55° Northeast 481 554 33,000  Level FlightAware
12:56AM 43.8370 -67.2570 55° Northeast 482 555 33,000  Level FlightAware
12:57AM 43.8890 -67.1520 55° Northeast 483 556 33,000  Level FlightAware
12:58AM 43.9450 -67.0370 56° Northeast 485 558 33,000  Level FlightAware
12:59AM 43.9960 -66.9340 55° Northeast 485 558 33,000  Level FlightAware
12:59AM 44.0530 -66.8180 56° Northeast 487 560 33,000  Level FlightAware
01:00AM 44.1030 -66.7170 55° Northeast 489 563 33,000  Level FlightAware
01:01AM 44.1610 -66.5970 56° Northeast 490 564 33,000  Level FlightAware
01:01AM 44.2100 -66.4920 57° Northeast 491 565 33,000  Level FlightAware
01:02AM 44.2620 -66.3860 56° Northeast 493 567 33,000  Level FlightAware
01:03AM 44.3140 -66.2780 56° Northeast 496 571 33,000  Level FlightAware
01:03AM 44.3660 -66.1710 56° Northeast 498 573 33,000  Level FlightAware
01:04AM 44.4220 -66.0530 56° Northeast 498 573 33,000  Level FlightAware
01:05AM 44.4730 -65.9430 57° Northeast 497 572 33,000  Level FlightAware
01:05AM 44.5200 -65.8460 56° Northeast 496 571 33,000  Level FlightAware
01:06AM 44.5810 -65.7150 57° Northeast 497 572 33,000  Level FlightAware
01:07AM 44.6390 -65.5910 57° Northeast 497 572 33,000  Level FlightAware
01:08AM 44.6890 -65.4830 57° Northeast 497 572 33,000  Level FlightAware
01:08AM 44.7450 -65.3650 56° Northeast 497 572 33,000  Level FlightAware
01:09AM 44.7980 -65.2480 57° Northeast 499 574 33,000  Level FlightAware
01:10AM 44.8500 -65.1360 57° Northeast 500 575 33,000  Level FlightAware
01:10AM 44.9050 -65.0180 57° Northeast 501 577 33,000  Level FlightAware
01:11AM 44.9450 -64.9300 57° Northeast 503 579 33,000  Level FlightAware
01:12AM 45.0050 -64.7980 57° Northeast 503 579 33,000  Level FlightAware
01:12AM 45.0560 -64.6840 58° Northeast 505 581 33,000  Level FlightAware
01:13AM 45.1070 -64.5720 57° Northeast 506 582 33,000  Level FlightAware
01:14AM 45.1590 -64.4580 57° Northeast 507 583 33,000  Level FlightAware
01:15AM 45.2110 -64.3430 57° Northeast 507 583 33,000  Level FlightAware
01:15AM 45.2690 -64.2140 57° Northeast 507 583 33,000  Level FlightAware
01:16AM 45.3160 -64.1070 58° Northeast 507 583 33,000  Level FlightAware
01:17AM 45.3690 -63.9860 58° Northeast 506 582 33,000  Level FlightAware
01:17AM 45.4180 -63.8750 58° Northeast 506 582 33,000  Level FlightAware
01:18AM 45.4560 -63.7890 58° Northeast 506 582 33,000  Level FlightAware
01:19AM 45.5070 -63.6710 58° Northeast 506 582 33,000  Level FlightAware
01:19AM 45.5690 -63.5330 57° Northeast 501 577 33,000  Level FlightAware
01:20AM 45.6320 -63.3900 58° Northeast 501 577 33,000  Level FlightAware
01:21AM 45.6690 -63.3030 59° Northeast 501 577 33,000  Level FlightAware
01:22AM 45.7800 -63.0410 59° Northeast 503 579 33,000  Level FlightAware
01:23AM 45.8480 -62.8810 59° Northeast 505 581 33,000  Level FlightAware
01:24AM 45.9090 -62.7390 58° Northeast 505 581 33,000  Level FlightAware
01:25AM 45.9590 -62.6210 59° Northeast 505 581 33,000  Level FlightAware
01:25AM 45.9950 -62.5330 59° Northeast 505 581 33,000  Level FlightAware
01:26AM 46.0740 -62.3460 59° Northeast 515 593 33,000  Level FlightAware
01:27AM 46.1270 -62.2190 59° Northeast 517 595 33,000  Level FlightAware
01:28AM 46.1760 -62.1010 59° Northeast 518 596 33,000  Level FlightAware
01:28AM 46.2300 -61.9700 59° Northeast 520 598 33,000  Level FlightAware
01:29AM 46.2800 -61.8500 59° Northeast 521 600 33,000  Level FlightAware
01:30AM 46.3310 -61.7240 60° Northeast 521 600 33,000  Level FlightAware
01:30AM 46.3860 -61.5890 59° Northeast 521 600 33,000  Level FlightAware
01:31AM 46.4390 -61.4570 60° Northeast 521 600 33,000  Level FlightAware
01:32AM 46.4870 -61.3360 60° Northeast 521 600 33,000  Level FlightAware
01:33AM 46.5400 -61.2060 59° Northeast 521 600 33,000  Level FlightAware
01:33AM 46.5870 -61.0880 60° Northeast 521 600 33,000  Level FlightAware
01:34AM 46.6420 -60.9490 60° Northeast 522 601 33,000  Level FlightAware
01:35AM 46.6880 -60.8330 60° Northeast 523 602 33,000  Level FlightAware
01:35AM 46.7430 -60.6920 60° Northeast 523 602 33,000  Level FlightAware
01:36AM 46.7900 -60.5730 60° Northeast 524 603 33,000  Level FlightAware
01:37AM 46.8440 -60.4340 60° Northeast 524 603 33,000  Level FlightAware
01:37AM 46.8920 -60.3110 60° Northeast 525 604 33,000  Level FlightAware
01:38AM 46.9440 -60.1750 61° Northeast 527 606 33,000  Level FlightAware
01:39AM 46.9920 -60.0510 60° Northeast 527 606 33,000  Level FlightAware
01:40AM 47.0440 -59.9170 60° Northeast 527 606 33,000  Level FlightAware
01:40AM 47.0920 -59.7920 61° Northeast 529 609 33,000  Level FlightAware
01:41AM 47.1400 -59.6630 61° Northeast 529 609 33,000  Level FlightAware
01:42AM 47.1970 -59.5120 61° Northeast 529 609 33,000  Level FlightAware
01:42AM 47.2500 -59.3700 61° Northeast 531 611 33,000  Level FlightAware
01:43AM 47.3050 -59.2210 61° Northeast 532 612 33,000  Level FlightAware
01:44AM 47.3480 -59.1080 61° Northeast 532 612 33,000  Level FlightAware
01:45AM 47.4050 -58.9530 61° Northeast 534 615 33,000  Level FlightAware
01:45AM 47.4560 -58.8150 61° Northeast 535 616 33,000  Level FlightAware
01:46AM 47.5040 -58.6840 61° Northeast 535 616 33,000  Level FlightAware
01:47AM 47.5490 -58.5580 62° Northeast 534 615 33,000  Level FlightAware
01:47AM 47.5970 -58.4260 62° Northeast 533 613 33,000  Level FlightAware
01:48AM 47.6500 -58.2810 61° Northeast 534 615 33,000  Level FlightAware
01:49AM 47.6960 -58.1490 63° Northeast 533 613 33,000  Level FlightAware
01:50AM 47.7440 -58.0170 62° Northeast 532 612 33,000  Level FlightAware
01:50AM 47.7980 -57.8620 63° Northeast 530 610 33,000  Level FlightAware
01:51AM 47.8430 -57.7360 62° Northeast 530 610 33,000  Level FlightAware
01:52AM 47.8900 -57.6000 63° Northeast 530 610 33,000  Level FlightAware
01:52AM 47.9360 -57.4590 64° Northeast 528 608 33,000  Level FlightAware
01:53AM 47.9730 -57.3410 65° Northeast 527 606 33,000  Level FlightAware
01:54AM 48.0150 -57.2090 65° Northeast 527 606 33,000  Level FlightAware
01:54AM 48.0620 -57.0610 65° Northeast 528 608 33,000  Level FlightAware
01:55AM 48.1050 -56.9260 64° Northeast 531 611 33,000  Level FlightAware
01:56AM 48.1460 -56.7960 65° Northeast 533 613 33,000  Level FlightAware
01:56AM 48.1880 -56.6620 65° Northeast 535 616 33,000  Level FlightAware
01:57AM 48.2290 -56.5270 65° Northeast 537 618 33,000  Level FlightAware
01:58AM 48.2770 -56.3720 65° Northeast 537 618 33,000  Level FlightAware
01:59AM 48.3240 -56.2200 65° Northeast 538 619 33,000  Level FlightAware
01:59AM 48.3660 -56.0840 65° Northeast 537 618 33,000  Level FlightAware
02:00AM 48.4120 -55.9350 65° Northeast 537 618 33,000  Level FlightAware
02:01AM 48.4530 -55.7950 66° East 539 620 33,000  Level FlightAware
02:01AM 48.4990 -55.6450 65° Northeast 540 621 33,000  Level FlightAware
02:02AM 48.5340 -55.5240 66° East 542 624 33,000  Level FlightAware
02:03AM 48.5760 -55.3830 66° East 541 623 33,000  Level FlightAware
02:03AM 48.6270 -55.2100 66° East 542 624 33,000  Level FlightAware
02:04AM 48.6670 -55.0720 66° East 543 625 33,000  Level FlightAware
02:05AM 48.7080 -54.9320 66° East 544 626 33,000  Level FlightAware
02:06AM 48.7530 -54.7760 66° East 545 627 33,000  Level FlightAware
02:06AM 48.7930 -54.6390 66° East 546 628 33,000  Level FlightAware
02:07AM 48.8390 -54.4810 66° East 547 629 33,000  Level FlightAware
02:08AM 48.8740 -54.3540 67° East 550 633 33,000  Level FlightAware
02:08AM 48.9200 -54.1940 66° East 551 634 33,000  Level FlightAware
02:09AM 48.9590 -54.0550 67° East 553 636 33,000  Level FlightAware
02:10AM 49.0050 -53.8900 67° East 555 639 33,000  Level FlightAware
02:10AM 49.0450 -53.7460 67° East 556 640 33,000  Level FlightAware
02:11AM 49.0910 -53.5790 67° East 558 642 33,000  Level FlightAware
02:12AM 49.1280 -53.4450 67° East 559 643 33,000  Level FlightAware
02:13AM 49.1740 -53.2740 68° East 558 642 33,000  Level FlightAware
02:13AM 49.2130 -53.1320 67° East 558 642 33,000  Level FlightAware
02:14AM 49.2510 -52.9890 68° East 561 646 33,000  Level FlightAware
02:15AM 49.2970 -52.8160 68° East 561 646 33,000  Level FlightAware
02:15AM 49.3350 -52.6700 68° East 558 642 33,000  Level FlightAware
02:16AM 49.3780 -52.5090 68° East 557 641 33,000  Level FlightAware
02:17AM 49.4170 -52.3620 68° East 556 640 33,000  Level FlightAware
02:17AM 49.4520 -52.2270 68° East 556 640 33,000  Level FlightAware
02:18AM 49.4970 -52.0510 68° East 553 636 33,000  Level FlightAware
02:19AM 49.5380 -51.8900 69° East 555 639 33,000  Level FlightAware
02:20AM 49.5760 -51.7390 69° East 555 639 33,000  Level FlightAware
02:20AM 49.6100 -51.6090 68° East 555 639 33,000  Level FlightAware
02:21AM 49.6400 -51.4970 67° East 555 639 33,000  Level FlightAware
02:22AM 49.6790 -51.3470 68° East 555 639 33,000  Level FlightAware
02:22AM 49.7080 -51.2340 68° East 555 639 33,000  Level FlightAware
02:23AM 49.7480 -51.0840 68° East 555 639 33,000  Level FlightAware
02:24AM 49.7770 -50.9710 68° East 555 639 33,000  Level FlightAware
02:24AM 49.8160 -50.8200 68° East 555 639 33,000  Level FlightAware
02:25AM 49.8460 -50.7070 68° East 555 639 33,000  Level FlightAware
02:26AM 49.8850 -50.5570 68° East 555 639 33,000  Level FlightAware
02:26AM 49.9150 -50.4400 68° East 555 639 33,000  Level FlightAware
02:27AM 49.9540 -50.2890 68° East 555 639 33,000  Level FlightAware
02:28AM 49.9840 -50.1760 68° East 555 639 33,000  Level FlightAware
02:29AM 50.0230 -50.0250 68° East 555 639 33,000  Level FlightAware
02:29AM 50.0520 -49.9120 68° East 555 639 33,000  Level FlightAware
02:33AM 50.2072 -49.2324 70° East  Level FlightAware Approximate
02:34AM 50.2541 -49.0224 71° East  Level FlightAware Approximate
02:35AM 50.3007 -48.8119 71° East  Level FlightAware Approximate
02:36AM 50.3468 -48.6011 71° East  Level FlightAware Approximate
02:37AM 50.3926 -48.3899 71° East  Level FlightAware Approximate
02:38AM 50.4381 -48.1782 71° East  Level FlightAware Approximate
02:39AM 50.4831 -47.9662 71° East  Level FlightAware Approximate
02:39AM 50.0000 -50.0000 69° East 552 635 33,000  Level ETMS Enhanced Traffic Management System
02:40AM 50.5277 -47.7537 72° East  Level FlightAware Approximate
02:41AM 50.5723 -47.5418 70° East  Level FlightAware Approximate
02:42AM 50.6201 -47.3314 70° East  Level FlightAware Approximate
02:43AM 50.6675 -47.1206 70° East  Level FlightAware Approximate
02:44AM 50.7145 -46.9094 71° East  Level FlightAware Approximate
02:45AM 50.9407 -45.9199 72° East 552 635 33,000  Level FlightAware Transoceanic
02:46AM 50.9887 -45.6885 72° East 552 635 33,000  Level FlightAware Transoceanic
02:47AM 51.0363 -45.4567 72° East 552 635 33,000  Level FlightAware Transoceanic
02:48AM 51.0834 -45.2244 72° East 552 635 33,000  Level FlightAware Transoceanic
02:49AM 51.1300 -44.9916 72° East 552 635 33,000  Level FlightAware Transoceanic
02:50AM 51.1762 -44.7584 73° East 552 635 33,000  Level FlightAware Transoceanic
02:51AM 51.2219 -44.5246 73° East 552 635 33,000  Level FlightAware Transoceanic
02:52AM 51.2672 -44.2905 73° East 552 635 33,000  Level FlightAware Transoceanic
02:53AM 51.3119 -44.0558 73° East 552 635 33,000  Level FlightAware Transoceanic
02:54AM 51.3562 -43.8207 73° East 552 635 33,000  Level FlightAware Transoceanic
02:55AM 51.4001 -43.5852 73° East 552 635 33,000  Level FlightAware Transoceanic
02:56AM 51.4434 -43.3492 74° East 552 635 33,000  Level FlightAware Transoceanic
02:57AM 51.4863 -43.1127 74° East 552 635 33,000  Level FlightAware Transoceanic
02:58AM 51.5288 -42.8758 74° East 552 635 33,000  Level FlightAware Transoceanic
02:59AM 51.5707 -42.6385 74° East 552 635 33,000  Level FlightAware Transoceanic
03:00AM 51.6121 -42.4008 74° East 552 635 33,000  Level FlightAware Transoceanic
03:01AM 51.6531 -42.1626 75° East 552 635 33,000  Level FlightAware Transoceanic
03:02AM 51.6936 -41.9239 75° East 552 635 33,000  Level FlightAware Transoceanic
03:03AM 51.7336 -41.6849 75° East 552 635 33,000  Level FlightAware Transoceanic
03:04AM 51.7732 -41.4454 75° East 552 635 33,000  Level FlightAware Transoceanic
03:05AM 51.8122 -41.2055 75° East 552 635 33,000  Level FlightAware Transoceanic
03:06AM 51.8507 -40.9652 76° East 552 635 33,000  Level FlightAware Transoceanic
03:07AM 51.8888 -40.7245 76° East 552 635 33,000  Level FlightAware Transoceanic
03:08AM 51.9263 -40.4834 76° East 552 635 33,000  Level FlightAware Transoceanic
03:09AM 51.9634 -40.2419 76° East 552 635 33,000  Level FlightAware Transoceanic
03:10AM 51.9972 -40.0183 76° East  Level FlightAware Approximate
03:11AM 52.0307 -39.7944 76° East  Level FlightAware Approximate
03:12AM 52.0060 -39.8076 87° East  Level FlightAware Approximate
03:13AM 52.0128 -39.5775 87° East  Level FlightAware Approximate
03:14AM 52.0191 -39.3473 87° East  Level FlightAware Approximate
03:15AM 52.0249 -39.1170 88° East  Level FlightAware Approximate
03:16AM 52.0303 -38.8867 88° East  Level FlightAware Approximate
03:17AM 52.0363 -38.6564 87° East  Level FlightAware Approximate
03:18AM 52.0433 -38.4261 87° East  Level FlightAware Approximate
03:19AM 52.0498 -38.1958 87° East  Level FlightAware Approximate
03:20AM 52.0558 -37.9654 87° East  Level FlightAware Approximate
03:21AM 52.0614 -37.7349 88° East  Level FlightAware Approximate
03:22AM 52.0666 -37.5044 88° East  Level FlightAware Approximate
03:23AM 52.0716 -37.2738 88° East  Level FlightAware Approximate
03:24AM 52.0762 -37.0432 88° East  Level FlightAware Approximate
03:25AM 52.0804 -36.8126 88° East  Level FlightAware Approximate
03:26AM 52.0841 -36.5819 88° East  Level FlightAware Approximate
03:27AM 52.0874 -36.3511 89° East  Level FlightAware Approximate
03:28AM 52.0902 -36.1204 89° East  Level FlightAware Approximate
03:29AM 52.0925 -35.8896 89° East  Level FlightAware Approximate
03:30AM 52.0944 -35.6588 89° East  Level FlightAware Approximate
03:31AM 52.0959 -35.4280 89° East  Level FlightAware Approximate
03:32AM 52.0969 -35.1971 90° East  Level FlightAware Approximate
03:33AM 52.0974 -34.9663 90° East  Level FlightAware Approximate
03:34AM 52.0975 -34.7354 90° East  Level FlightAware Approximate
03:35AM 52.0972 -34.5046 90° East  Level FlightAware Approximate
03:36AM 52.0964 -34.2738 90° East  Level FlightAware Approximate
03:37AM 52.0951 -34.0429 90° East  Level FlightAware Approximate
03:38AM 52.0934 -33.8121 91° East  Level FlightAware Approximate
03:39AM 52.0913 -33.5813 91° East  Level FlightAware Approximate
03:40AM 52.0887 -33.3505 91° East  Level FlightAware Approximate
03:41AM 52.0856 -33.1198 91° East  Level FlightAware Approximate
03:42AM 52.0821 -32.8891 91° East  Level FlightAware Approximate
03:43AM 52.0782 -32.6584 92° East  Level FlightAware Approximate
03:44AM 52.0738 -32.4278 92° East  Level FlightAware Approximate
03:45AM 52.0689 -32.1972 92° East  Level FlightAware Approximate
03:46AM 52.0636 -31.9667 92° East  Level FlightAware Approximate
03:47AM 52.0579 -31.7362 92° East  Level FlightAware Approximate
03:48AM 52.0517 -31.5058 92° East  Level FlightAware Approximate
03:49AM 52.0450 -31.2754 93° East  Level FlightAware Approximate
03:50AM 52.0379 -31.0452 93° East  Level FlightAware Approximate
03:51AM 52.0304 -30.8150 93° East  Level FlightAware Approximate
03:52AM 52.0224 -30.5849 93° East  Level FlightAware Approximate
03:53AM 52.0139 -30.3549 93° East  Level FlightAware Approximate
03:54AM 52.0050 -30.1249 94° East  Level FlightAware Approximate
03:55AM 51.9940 -29.8953 95° East  Level FlightAware Approximate
03:56AM 51.9805 -29.6661 95° East  Level FlightAware Approximate
03:57AM 51.9666 -29.4370 96° East  Level FlightAware Approximate
03:58AM 51.9523 -29.2080 96° East  Level FlightAware Approximate
03:59AM 51.9374 -28.9792 96° East  Level FlightAware Approximate
04:00AM 51.9222 -28.7506 96° East  Level FlightAware Approximate
04:01AM 51.9065 -28.5221 96° East  Level FlightAware Approximate
04:02AM 51.8904 -28.2937 96° East  Level FlightAware Approximate
04:03AM 51.8738 -28.0656 97° East  Level FlightAware Approximate
04:04AM 51.8568 -27.8376 97° East  Level FlightAware Approximate
04:05AM 51.8393 -27.6098 97° East  Level FlightAware Approximate
04:06AM 51.8214 -27.3821 97° East  Level FlightAware Approximate
04:07AM 51.8031 -27.1546 97° East  Level FlightAware Approximate
04:08AM 51.7843 -26.9274 98° East  Level FlightAware Approximate
04:09AM 51.7651 -26.7003 98° East  Level FlightAware Approximate
04:10AM 51.7454 -26.4734 98° East  Level FlightAware Approximate
04:11AM 51.7253 -26.2467 98° East  Level FlightAware Approximate
04:12AM 51.7048 -26.0202 98° East  Level FlightAware Approximate
04:13AM 51.6839 -25.7940 98° East  Level FlightAware Approximate
04:14AM 51.6625 -25.5679 99° East  Level FlightAware Approximate
04:15AM 51.6407 -25.3421 99° East  Level FlightAware Approximate
04:16AM 51.6184 -25.1164 99° East  Level FlightAware Approximate
04:17AM 51.5958 -24.8910 99° East  Level FlightAware Approximate
04:18AM 51.5731 -24.6657 99° East  Level FlightAware Approximate
04:19AM 51.5500 -24.4406 99° East  Level FlightAware Approximate
04:20AM 51.5265 -24.2158 99° East  Level FlightAware Approximate
04:21AM 51.5025 -23.9912 100° East  Level FlightAware Approximate
04:22AM 51.4781 -23.7668 100° East  Level FlightAware Approximate
04:23AM 51.4533 -23.5427 100° East  Level FlightAware Approximate
04:24AM 51.4281 -23.3188 100° East  Level FlightAware Approximate
04:25AM 51.4024 -23.0952 100° East  Level FlightAware Approximate
04:26AM 51.3764 -22.8718 101° East  Level FlightAware Approximate
04:27AM 51.3498 -22.6487 101° East  Level FlightAware Approximate
04:28AM 51.3229 -22.4258 101° East  Level FlightAware Approximate
04:29AM 51.2955 -22.2032 101° East  Level FlightAware Approximate
04:30AM 51.2678 -21.9809 101° East  Level FlightAware Approximate
04:31AM 51.2396 -21.7588 101° East  Level FlightAware Approximate
04:32AM 51.2109 -21.5370 102° East  Level FlightAware Approximate
04:33AM 51.1819 -21.3155 102° East  Level FlightAware Approximate
04:34AM 51.1524 -21.0943 102° East  Level FlightAware Approximate
04:35AM 51.1226 -20.8734 102° East  Level FlightAware Approximate
04:36AM 51.0923 -20.6527 102° East  Level FlightAware Approximate
04:37AM 51.0616 -20.4323 102° East  Level FlightAware Approximate
04:38AM 51.0304 -20.2122 103° East  Level FlightAware Approximate
04:39AM 50.9992 -19.9924 100° East  Level FlightAware Approximate
04:40AM 50.9746 -19.7705 100° East  Level FlightAware Approximate
04:41AM 50.9496 -19.5489 100° East  Level FlightAware Approximate
04:42AM 50.9242 -19.3275 100° East  Level FlightAware Approximate
04:43AM 50.8984 -19.1063 100° East  Level FlightAware Approximate
04:44AM 50.8722 -18.8854 101° East  Level FlightAware Approximate
04:45AM 50.8455 -18.6647 101° East  Level FlightAware Approximate
04:46AM 50.8185 -18.4443 101° East  Level FlightAware Approximate
04:47AM 50.7910 -18.2242 101° East  Level FlightAware Approximate
04:48AM 50.7631 -18.0043 101° East  Level FlightAware Approximate
04:49AM 50.7348 -17.7847 101° East  Level FlightAware Approximate
04:50AM 50.7061 -17.5653 102° East  Level FlightAware Approximate
04:51AM 50.6769 -17.3462 102° East  Level FlightAware Approximate
04:52AM 50.6474 -17.1274 102° East  Level FlightAware Approximate
04:53AM 50.6174 -16.9089 102° East  Level FlightAware Approximate
04:54AM 50.5871 -16.6906 102° East  Level FlightAware Approximate
04:55AM 50.5563 -16.4727 102° East  Level FlightAware Approximate
04:56AM 50.5252 -16.2550 103° East  Level FlightAware Approximate
04:57AM 50.4936 -16.0379 103° East  Level FlightAware Approximate
04:58AM 50.4617 -15.8212 103° East  Level FlightAware Approximate
04:59AM 50.4294 -15.6048 103° East  Level FlightAware Approximate
05:00AM 50.3966 -15.3886 103° East  Level FlightAware Approximate
05:01AM 50.3635 -15.1728 103° East  Level FlightAware Approximate
05:02AM 50.3300 -14.9572 104° East  Level FlightAware Approximate
05:03AM 50.2961 -14.7420 104° East  Level FlightAware Approximate
05:04AM 50.2617 -14.5271 104° East  Level FlightAware Approximate
05:05AM 50.2270 -14.3125 104° East  Level FlightAware Approximate
05:06AM 50.1919 -14.0982 104° East  Level FlightAware Approximate
05:07AM 50.1564 -13.8842 104° East  Level FlightAware Approximate
05:08AM 50.1205 -13.6706 105° East  Level FlightAware Approximate
05:09AM 50.0842 -13.4572 105° East  Level FlightAware Approximate
05:10AM 50.0475 -13.2442 105° East  Level FlightAware Approximate
05:11AM 50.0105 -13.0315 105° East  Level FlightAware Approximate
05:12AM 49.9730 -12.8191 105° East  Level FlightAware Approximate
05:13AM 49.9352 -12.6071 105° East  Level FlightAware Approximate
05:13AM 50.1380 -10.7540 105° East 553 636 33,000  Level FlightAware
05:13AM 50.0990 -10.5900 110° East 550 633 33,000  Level FlightAware
05:14AM 50.0630 -10.4420 111° Southeast 548 631 33,000  Level FlightAware
05:14AM 50.0390 -10.3430 111° Southeast 547 629 33,000  Level FlightAware
05:15AM 50.0030 -10.1920 110° East 546 628 33,000  Level FlightAware
05:16AM 49.9600 -10.0110 110° East 546 628 33,000  Level FlightAware
05:17AM 49.9200 -9.8510 111° Southeast 546 628 33,000  Level FlightAware
05:17AM 49.8780 -9.6790 111° Southeast 546 628 33,000  Level FlightAware
05:18AM 49.8430 -9.5410 111° Southeast 544 626 33,000  Level FlightAware
05:19AM 49.7980 -9.3610 111° Southeast 540 621 33,000  Level FlightAware
05:20AM 49.7620 -9.2170 111° Southeast 537 618 33,000  Level FlightAware
05:20AM 49.7240 -9.0670 111° Southeast 536 617 33,000  Level FlightAware
05:21AM 49.7015 -8.9798 111° Southeast 494 568 33,000  Level FlightAware UK
05:21AM 49.6852 -8.9158 111° Southeast 492 566 33,000  Level FlightAware UK
05:21AM 49.6840 -8.9110 111° Southeast 535 616 33,000  Level FlightAware
05:21AM 49.6688 -8.8517 111° Southeast 492 566 33,000  Level FlightAware UK
05:22AM 49.6525 -8.7879 112° Southeast 492 566 33,000  Level FlightAware UK
05:22AM 49.6480 -8.7720 112° Southeast 535 616 33,000  Level FlightAware
05:22AM 49.6308 -8.7027 112° Southeast 498 573 33,000  Level FlightAware UK
05:22AM 49.6142 -8.6389 112° Southeast 496 571 33,000  Level FlightAware UK
05:22AM 49.6070 -8.6130 112° Southeast 535 616 33,000  Level FlightAware
05:23AM 49.5920 -8.5540 112° Southeast 496 571 33,000  Level FlightAware UK
05:23AM 49.5753 -8.4904 112° Southeast 496 571 33,000  Level FlightAware UK
05:23AM 49.5700 -8.4680 112° Southeast 535 616 33,000  Level FlightAware
05:23AM 49.5531 -8.4056 112° Southeast 500 575 33,000  Level FlightAware UK
05:24AM 49.5363 -8.3421 112° Southeast 498 573 33,000  Level FlightAware UK
05:24AM 49.5290 -8.3160 112° Southeast 535 616 33,000  Level FlightAware
05:24AM 49.5140 -8.2575 112° Southeast 500 575 33,000  Level FlightAware UK
05:24AM 49.4974 -8.1940 112° Southeast 502 578 33,000  Level FlightAware UK
05:24AM 49.4910 -8.1680 112° Southeast 534 615 33,000  Level FlightAware
05:25AM 49.4750 -8.1096 112° Southeast 498 573 33,000  Level FlightAware UK
05:25AM 49.4581 -8.0466 112° Southeast 498 573 33,000  Level FlightAware UK
05:25AM 49.4530 -8.0280 112° Southeast 532 612 33,000  Level FlightAware
05:25AM 49.4354 -7.9619 112° Southeast 500 575 33,000  Level FlightAware UK
05:26AM 49.4185 -7.8991 112° Southeast 500 575 33,000  Level FlightAware UK
05:26AM 49.4110 -7.8710 112° Southeast 530 610 33,000  Level FlightAware
05:26AM 49.3960 -7.8158 112° Southeast 500 575 33,000  Level FlightAware UK
05:26AM 49.3786 -7.7536 113° Southeast 502 578 33,000  Level FlightAware UK
05:27AM 49.3730 -7.7370 113° Southeast 529 609 33,000  Level FlightAware
05:27AM 49.3540 -7.6721 113° Southeast 502 578 33,000 480 Level FlightAware UK
05:27AM 49.3349 -7.6116 116° Southeast 500 575 33,300 1,080 Climbing FlightAware UK
05:27AM 49.3270 -7.5880 116° Southeast 530 610 33,500 1,500 Climbing FlightAware
05:28AM 49.3094 -7.5311 116° Southeast 508 585 33,900 1,620 Climbing FlightAware UK
05:28AM 49.2901 -7.4708 116° Southeast 500 575 34,400 1,680 Climbing FlightAware UK
05:28AM 49.2840 -7.4540 116° Southeast 526 605 34,600 1,200 Climbing FlightAware
05:28AM 49.2640 -7.3907 116° Southeast 502 578 34,900 660 Climbing FlightAware UK
05:29AM 49.2444 -7.3308 117° Southeast 506 582 35,000 240 Climbing FlightAware UK
05:29AM 49.2380 -7.3140 117° Southeast 529 609 35,000  Level FlightAware
05:29AM 49.2181 -7.2508 117° Southeast 504 580 35,000  Level FlightAware UK
05:29AM 49.1984 -7.1909 117° Southeast 506 582 35,000  Level FlightAware UK
05:29AM 49.1920 -7.1740 117° Southeast 526 605 35,000  Level FlightAware
05:30AM 49.1719 -7.1113 117° Southeast 504 580 35,000  Level FlightAware UK
05:30AM 49.1521 -7.0519 117° Southeast 502 578 35,000  Level FlightAware UK
05:30AM 49.1440 -7.0290 117° Southeast 522 601 35,000  Level FlightAware
05:30AM 49.1257 -6.9728 117° Southeast 498 573 35,000  Level FlightAware UK
05:31AM 49.1058 -6.9130 117° Southeast 498 573 35,000  Level FlightAware UK
05:31AM 49.1000 -6.8950 117° Southeast 521 600 35,000  Level FlightAware
05:31AM 49.0797 -6.8344 117° Southeast 500 575 35,000  Level FlightAware UK
05:31AM 49.0602 -6.7755 117° Southeast 498 573 35,000  Level FlightAware UK
05:32AM 49.0520 -6.7540 117° Southeast 520 598 35,000  Level FlightAware
05:32AM 49.0343 -6.6977 117° Southeast 500 575 35,000  Level FlightAware UK
05:32AM 49.0147 -6.6394 117° Southeast 500 575 35,000  Level FlightAware UK
05:32AM 49.0090 -6.6240 117° Southeast 519 597 35,000  Level FlightAware
05:32AM 48.9886 -6.5615 117° Southeast 500 575 35,000  Level FlightAware UK
05:33AM 48.9690 -6.5032 117° Southeast 500 575 35,000  Level FlightAware UK
05:33AM 48.9600 -6.4780 117° Southeast 518 596 35,000  Level FlightAware
05:33AM 48.9429 -6.4255 117° Southeast 496 571 35,000  Level FlightAware UK
05:33AM 48.9233 -6.3673 117° Southeast 496 571 35,000  Level FlightAware UK
05:34AM 48.9160 -6.3480 117° Southeast 517 595 35,000  Level FlightAware
05:34AM 48.8972 -6.2897 117° Southeast 496 571 35,000  Level FlightAware UK
05:34AM 48.8774 -6.2316 117° Southeast 496 571 35,000  Level FlightAware UK
05:34AM 48.8690 -6.2090 117° Southeast 519 597 35,000  Level FlightAware
05:35AM 48.8510 -6.1541 117° Southeast 496 571 35,000  Level FlightAware UK
05:35AM 48.8250 -6.0800 117° Southeast 520 598 35,000  Level FlightAware
05:35AM 48.8045 -6.0184 117° Southeast 498 573 35,000  Level FlightAware UK
05:36AM 48.7760 -5.9370 117° Southeast 521 600 35,000  Level FlightAware
05:36AM 48.7445 -5.8435 117° Southeast 500 575 35,000  Level FlightAware UK
05:36AM 48.7310 -5.8080 117° Southeast 522 601 35,000  Level FlightAware
05:37AM 48.7106 -5.7459 117° Southeast 504 580 35,000  Level FlightAware UK
05:37AM 48.6903 -5.6876 118° Southeast 504 580 35,000  Level FlightAware UK
05:37AM 48.6810 -5.6620 118° Southeast 524 603 35,000  Level FlightAware
05:37AM 48.6631 -5.6099 118° Southeast 504 580 35,000  Level FlightAware UK
05:38AM 48.6427 -5.5516 118° Southeast 504 580 35,000  Level FlightAware UK
05:38AM 48.6360 -5.5320 118° Southeast 524 603 35,000  Level FlightAware
05:38AM 48.6156 -5.4738 118° Southeast 504 580 35,000  Level FlightAware UK
05:39AM 48.5860 -5.3900 118° Southeast 524 603 35,000  Level FlightAware
05:39AM 48.5614 -5.3186 118° Southeast 506 582 35,000  Level FlightAware UK
05:39AM 48.5410 -5.2640 118° Southeast 524 603 35,000  Level FlightAware
05:40AM 48.5134 -5.1829 118° Southeast 508 585 35,000  Level FlightAware UK
05:40AM 48.4929 -5.1252 118° Southeast 508 585 35,000  Level FlightAware UK
05:40AM 48.4930 -5.1290 118° Southeast 522 601 35,000  Level FlightAware
05:40AM 48.4723 -5.0675 118° Southeast 506 582 35,000  Level FlightAware UK
05:40AM 48.4518 -5.0099 118° Southeast 504 580 35,000  Level FlightAware UK
05:41AM 48.4430 -4.9890 118° Southeast 521 600 35,000  Level FlightAware
05:41AM 48.4245 -4.9331 118° Southeast 504 580 35,000  Level FlightAware UK
05:41AM 48.4040 -4.8756 118° Southeast 506 582 35,000  Level FlightAware UK
05:41AM 48.3970 -4.8610 118° Southeast 522 601 35,000  Level FlightAware
05:42AM 48.3480 -4.7210 118° Southeast 520 598 35,000  Level FlightAware
05:43AM 48.3010 -4.5940 119° Southeast 519 597 35,000  Level FlightAware
05:43AM 48.2802 -4.5328 119° Southeast 504 580 35,000  Level FlightAware UK
05:43AM 48.2527 -4.4568 118° Southeast 504 580 35,000  Level FlightAware UK
05:43AM 48.2510 -4.4550 118° Southeast 519 597 35,000  Level FlightAware
05:44AM 48.2050 -4.3290 119° Southeast 518 596 35,000  Level FlightAware
05:45AM 48.1540 -4.1880 118° Southeast 517 595 35,000  Level FlightAware
05:45AM 48.1080 -4.0660 119° Southeast 517 595 35,000  Level FlightAware
05:46AM 48.0570 -3.9280 119° Southeast 518 596 35,000  Level FlightAware
05:47AM 48.0120 -3.8100 120° Southeast 518 596 35,000  Level FlightAware
05:48AM 47.9520 -3.6770 124° Southeast 517 595 35,000  Level FlightAware
05:48AM 47.8930 -3.5560 126° Southeast 516 594 35,000  Level FlightAware
05:49AM 47.8320 -3.4320 126° Southeast 516 594 35,000  Level FlightAware
05:50AM 47.7730 -3.3110 126° Southeast 516 594 35,000  Level FlightAware
05:50AM 47.7140 -3.1880 125° Southeast 517 595 35,000  Level FlightAware
05:51AM 47.6590 -3.0750 126° Southeast 517 595 35,000  Level FlightAware
05:52AM 47.5980 -2.9490 126° Southeast 516 594 35,000  Level FlightAware
05:52AM 47.5400 -2.8320 126° Southeast 517 595 35,000  Level FlightAware
05:53AM 47.4810 -2.7120 126° Southeast 515 593 35,000  Level FlightAware
05:54AM 47.4250 -2.5980 126° Southeast 515 593 35,000  Level FlightAware
05:55AM 47.3620 -2.4710 126° Southeast 515 593 35,000  Level FlightAware
05:55AM 47.3050 -2.3580 127° Southeast 515 593 35,000  Level FlightAware
05:56AM 47.2410 -2.2310 127° Southeast 514 592 35,000  Level FlightAware
05:57AM 47.1860 -2.1220 127° Southeast 515 593 35,000  Level FlightAware
05:57AM 47.1260 -2.0040 127° Southeast 515 593 35,000  Level FlightAware
05:58AM 47.0640 -1.8810 126° Southeast 515 593 35,000  Level FlightAware
05:59AM 47.0100 -1.7750 127° Southeast 514 592 35,000  Level FlightAware
06:00AM 46.9440 -1.6470 127° Southeast 513 590 35,000  Level FlightAware
06:00AM 46.8880 -1.5360 126° Southeast 513 590 35,000  Level FlightAware
06:01AM 46.8270 -1.4200 128° Southeast 514 592 35,000  Level FlightAware
06:02AM 46.7670 -1.3040 127° Southeast 514 592 35,000  Level FlightAware
06:02AM 46.7050 -1.1860 127° Southeast 513 590 35,000  Level FlightAware
06:03AM 46.6420 -1.0670 128° Southeast 514 592 35,000  Level FlightAware
06:04AM 46.5840 -0.9550 127° Southeast 515 593 35,000  Level FlightAware
06:05AM 46.4660 -0.7290 127° Southeast 516 594 35,000  Level FlightAware
06:06AM 46.4220 -0.6440 127° Southeast 516 594 35,000  Level FlightAware
06:06AM 46.3650 -0.4840 117° Southeast 522 601 35,000  Level FlightAware
06:07AM 46.3300 -0.3560 112° Southeast 523 602 35,000  Level FlightAware
06:08AM 46.2970 -0.2130 108° East 522 601 35,000  Level FlightAware
06:09AM 46.2630 -0.0710 109° East 524 603 35,000  Level FlightAware
06:09AM 46.2270 0.0710 110° East 523 602 35,000  Level FlightAware
06:10AM 46.1900 0.2170 110° East 518 596 35,000  Level FlightAware
06:11AM 46.1470 0.3930 109° East 515 593 35,000  Level FlightAware
06:12AM 46.1100 0.5390 110° East 517 595 35,000  Level FlightAware
06:12AM 46.0860 0.6420 109° East 517 595 35,000  Level FlightAware
06:13AM 46.0540 0.7750 109° East 517 595 35,000  Level FlightAware
06:14AM 46.0300 0.8750 109° East 517 595 35,000  Level FlightAware
06:15AM 45.9980 1.0070 109° East 517 595 35,000  Level FlightAware
06:15AM 45.9740 1.1100 109° East 517 595 35,000  Level FlightAware
06:16AM 45.8930 1.3990 112° Southeast 511 588 35,000  Level FlightAware
06:17AM 45.8600 1.5290 110° East 511 588 35,000  Level FlightAware
06:18AM 45.8200 1.6830 110° East 516 594 35,000  Level FlightAware
06:18AM 45.7830 1.8240 111° Southeast 518 596 35,000  Level FlightAware
06:19AM 45.7490 1.9520 111° Southeast 518 596 35,000  Level FlightAware
06:20AM 45.7130 2.0900 110° East 517 595 35,000  Level FlightAware
06:20AM 45.6780 2.2210 111° Southeast 517 595 35,000  Level FlightAware
06:21AM 45.6450 2.3450 111° Southeast 514 592 35,000  Level FlightAware
06:22AM 45.6060 2.4900 111° Southeast 513 590 35,000  Level FlightAware
06:22AM 45.5710 2.6190 111° Southeast 510 587 35,000  Level FlightAware
06:23AM 45.5390 2.7350 111° Southeast 510 587 35,000  Level FlightAware
06:24AM 45.5130 2.8380 110° East 510 587 35,000  Level FlightAware
06:25AM 45.4800 2.9670 110° East 510 587 35,000  Level FlightAware
06:25AM 45.4540 3.0660 110° East 510 587 35,000  Level FlightAware
06:26AM 45.4210 3.1950 110° East 510 587 35,000  Level FlightAware
06:27AM 45.3560 3.3990 114° Southeast 515 593 35,000  Level FlightAware
06:27AM 45.3180 3.5350 112° Southeast 517 595 35,000  Level FlightAware
06:28AM 45.2840 3.6540 112° Southeast 518 596 35,000  Level FlightAware
06:29AM 45.2460 3.8050 110° East 522 601 35,000  Level FlightAware
06:30AM 45.1850 3.9780 117° Southeast 505 581 35,000  Level FlightAware
06:30AM 45.1410 4.0700 124° Southeast 505 581 35,000  Level FlightAware
06:31AM 45.0850 4.2040 121° Southeast 510 587 35,000  Level FlightAware
06:32AM 45.0370 4.3220 120° Southeast 505 581 35,000  Level FlightAware
06:32AM 44.9880 4.4360 121° Southeast 504 580 35,000  Level FlightAware
06:33AM 44.9310 4.5660 122° Southeast 511 588 35,000  Level FlightAware
06:34AM 44.8810 4.6790 122° Southeast 515 593 35,000  Level FlightAware
06:35AM 44.8230 4.8070 123° Southeast 516 594 35,000  Level FlightAware
06:35AM 44.7720 4.9210 122° Southeast 516 594 35,000  Level FlightAware
06:36AM 44.7160 5.0460 122° Southeast 519 597 35,000  Level FlightAware
06:37AM 44.6640 5.1640 122° Southeast 520 598 35,000  Level FlightAware
06:37AM 44.6070 5.2930 122° Southeast 521 600 35,000  Level FlightAware
06:38AM 44.5570 5.4020 123° Southeast 525 604 35,000  Level FlightAware
06:39AM 44.5060 5.5170 122° Southeast 523 602 35,000  Level FlightAware
06:39AM 44.4540 5.6290 123° Southeast 525 604 35,000 300 Level FlightAware
06:40AM 44.3900 5.7440 128° Southeast 526 605 35,400 960 Climbing FlightAware
06:41AM 44.3230 5.8640 128° Southeast 524 603 36,400 1,080 Climbing FlightAware
06:42AM 44.2630 5.9720 128° Southeast 528 608 37,000 420 Climbing FlightAware
06:42AM 44.1970 6.0940 127° Southeast 522 601 37,000  Level FlightAware
06:43AM 44.1380 6.2020 127° Southeast 520 598 37,000  Level FlightAware
06:44AM 44.0720 6.3220 127° Southeast 519 597 37,000  Level FlightAware
06:44AM 44.0130 6.4290 127° Southeast 516 594 37,000  Level FlightAware
06:45AM 43.9370 6.5300 136° Southeast 508 585 37,000  Level FlightAware
06:46AM 43.8640 6.6230 137° Southeast 510 587 37,000  Level FlightAware
06:47AM 43.7850 6.7240 137° Southeast 510 587 37,000  Level FlightAware
06:47AM 43.7140 6.8130 138° Southeast 518 596 37,000  Level FlightAware
06:48AM 43.6380 6.9090 138° Southeast 518 596 37,000  Level FlightAware
06:49AM 43.5650 7.0100 135° Southeast 530 610 37,000  Level FlightAware
06:49AM 43.5150 7.1270 120° Southeast 536 617 37,000  Level FlightAware
06:50AM 43.4650 7.2570 118° Southeast 539 620 37,000  Level FlightAware
06:51AM 43.4180 7.3860 117° Southeast 541 623 37,000  Level FlightAware
06:51AM 43.3710 7.5040 119° Southeast 541 623 37,000  Level FlightAware
06:52AM 43.3170 7.6440 118° Southeast 543 625 37,000  Level FlightAware
06:53AM 43.2680 7.7680 118° Southeast 542 624 37,000  Level FlightAware
06:54AM 43.2180 7.8950 118° Southeast 542 624 37,000  Level FlightAware
06:54AM 43.1740 8.0030 119° Southeast 542 624 37,000  Level FlightAware
06:55AM 43.1160 8.1480 119° Southeast 542 624 37,000  Level FlightAware
06:56AM 43.0690 8.2680 118° Southeast 541 623 37,000  Level FlightAware
06:56AM 43.0140 8.4020 119° Southeast 541 623 37,000  Level FlightAware
06:57AM 42.9660 8.5220 119° Southeast 541 623 37,000  Level FlightAware
06:58AM 42.9170 8.6420 119° Southeast 542 624 37,000  Level FlightAware
06:58AM 42.8610 8.7820 119° Southeast 542 624 37,000  Level FlightAware
06:59AM 42.8200 8.8800 120° Southeast 542 624 37,000  Level FlightAware
07:00AM 42.7500 9.0500 119° Southeast 538 619 37,000  Level FlightAware
07:01AM 42.6940 9.1860 119° Southeast 538 619 37,000  Level FlightAware
07:01AM 42.6450 9.3020 120° Southeast 537 618 37,000  Level FlightAware
07:02AM 42.5960 9.4230 119° Southeast 541 623 37,000  Level FlightAware
07:03AM 42.5500 9.5590 115° Southeast 539 620 37,000  Level FlightAware
07:03AM 42.5090 9.6860 114° Southeast 535 616 37,000  Level FlightAware
07:04AM 42.4480 9.8130 123° Southeast 537 618 37,000  Level FlightAware
07:05AM 42.3950 9.9260 122° Southeast 531 611 37,000  Level FlightAware
07:06AM 42.3370 10.0550 121° Southeast 534 615 37,000  Level FlightAware
07:06AM 42.2870 10.1660 121° Southeast 531 611 37,000  Level FlightAware
07:07AM 42.2300 10.2960 121° Southeast 529 609 37,000  Level FlightAware
07:08AM 42.1780 10.4080 122° Southeast 522 601 37,000  Level FlightAware
07:08AM 42.1250 10.5150 124° Southeast 519 597 37,000  Level FlightAware
07:09AM 42.0660 10.6400 122° Southeast 516 594 37,000  Level FlightAware
07:10AM 42.0200 10.7350 123° Southeast 514 592 37,000  Level FlightAware
07:10AM 41.9620 10.8560 123° Southeast 513 590 37,000  Level FlightAware
07:12AM 41.8800 11.0240 123° Southeast 515 593 37,000  Level FlightAware
07:12AM 41.8250 11.1400 122° Southeast 516 594 37,000  Level FlightAware
07:13AM 41.7670 11.2590 123° Southeast 517 595 37,000  Level FlightAware
07:14AM 41.7130 11.3690 123° Southeast 523 602 37,000  Level FlightAware
07:14AM 41.6610 11.4720 124° Southeast 525 604 37,000  Level FlightAware
07:15AM 41.5990 11.5990 123° Southeast 527 606 37,000  Level FlightAware
07:16AM 41.5450 11.7080 123° Southeast 528 608 37,000  Level FlightAware
07:16AM 41.4920 11.8140 124° Southeast 528 608 37,000  Level FlightAware
07:17AM 41.4250 11.9470 124° Southeast 528 608 37,000  Level FlightAware
07:18AM 41.3700 12.0600 123° Southeast 527 606 37,000  Level FlightAware
07:19AM 41.3180 12.1620 124° Southeast 525 604 37,000  Level FlightAware
07:19AM 41.2590 12.2770 124° Southeast 524 603 37,000  Level FlightAware
07:20AM 41.2070 12.3810 124° Southeast 523 602 37,000  Level FlightAware
07:21AM 41.1460 12.5030 124° Southeast 521 600 37,000  Level FlightAware
07:21AM 41.0910 12.6080 125° Southeast 520 598 37,000  Level FlightAware
07:22AM 41.0300 12.7290 124° Southeast 520 598 37,000  Level FlightAware
07:23AM 40.9820 12.8300 122° Southeast 522 601 37,000  Level FlightAware
07:23AM 40.9300 12.9480 120° Southeast 523 602 37,000  Level FlightAware
07:24AM 40.8820 13.0550 121° Southeast 524 603 37,000  Level FlightAware
07:25AM 40.8230 13.1910 120° Southeast 524 603 37,000  Level FlightAware
07:26AM 40.7740 13.3050 120° Southeast 526 605 37,000  Level FlightAware
07:26AM 40.7180 13.4290 121° Southeast 528 608 37,000  Level FlightAware
07:27AM 40.6680 13.5400 121° Southeast 528 608 37,000  Level FlightAware
07:28AM 40.6160 13.6590 120° Southeast 527 606 37,000  Level FlightAware
07:28AM 40.5640 13.7750 121° Southeast 527 606 37,000  Level FlightAware
07:29AM 40.5100 13.8940 121° Southeast 529 609 37,000  Level FlightAware
07:30AM 40.4590 14.0080 120° Southeast 530 610 37,000  Level FlightAware
07:30AM 40.4070 14.1210 121° Southeast 532 612 37,000  Level FlightAware
07:31AM 40.3520 14.2430 121° Southeast 533 613 37,000  Level FlightAware
07:32AM 40.3010 14.3540 121° Southeast 535 616 37,000  Level FlightAware
07:33AM 40.2440 14.4760 121° Southeast 535 616 37,000  Level FlightAware
07:33AM 40.1950 14.5850 120° Southeast 535 616 37,000  Level FlightAware
07:34AM 40.1400 14.7040 121° Southeast 536 617 37,000  Level FlightAware
07:35AM 40.0860 14.8200 121° Southeast 536 617 37,000  Level FlightAware
07:35AM 40.0350 14.9280 122° Southeast 537 618 37,000  Level FlightAware
07:36AM 39.9790 15.0490 121° Southeast 537 618 37,000  Level FlightAware
07:37AM 39.9240 15.1690 121° Southeast 538 619 37,000  Level FlightAware
07:37AM 39.8820 15.2970 113° Southeast 541 623 37,000  Level FlightAware
07:38AM 39.8440 15.4210 112° Southeast 541 623 37,000  Level FlightAware
07:39AM 39.8020 15.5470 113° Southeast 540 621 37,000  Level FlightAware
07:40AM 39.7630 15.6730 112° Southeast 539 620 37,000  Level FlightAware
07:40AM 39.7230 15.7980 113° Southeast 537 618 37,000  Level FlightAware
07:41AM 39.6830 15.9260 112° Southeast 536 617 37,000  Level FlightAware
07:42AM 39.6360 16.0740 112° Southeast 535 616 37,000  Level FlightAware
07:43AM 39.5950 16.2020 113° Southeast 533 613 37,000  Level FlightAware
07:43AM 39.5500 16.3400 113° Southeast 533 613 37,000  Level FlightAware
07:44AM 39.5120 16.4580 113° Southeast 534 615 37,000  Level FlightAware
07:45AM 39.4740 16.5760 113° Southeast 536 617 37,000  Level FlightAware
07:45AM 39.4310 16.7100 113° Southeast 538 619 37,000  Level FlightAware
07:46AM 39.3900 16.8350 113° Southeast 541 623 37,000  Level FlightAware
07:47AM 39.3480 16.9630 113° Southeast 544 626 37,000  Level FlightAware
07:47AM 39.3160 17.0590 113° Southeast 546 628 37,000  Level FlightAware
07:48AM 39.2550 17.2450 113° Southeast 549 632 37,000  Level FlightAware
07:49AM 39.2240 17.3400 113° Southeast 549 632 37,000  Level FlightAware
07:50AM 39.1690 17.5040 113° Southeast 556 640 37,000  Level FlightAware
07:51AM 39.1270 17.6320 113° Southeast 557 641 37,000  Level FlightAware
07:51AM 39.0750 17.7840 114° Southeast 557 641 37,000  Level FlightAware
07:52AM 39.0440 17.8780 113° Southeast 557 641 37,000  Level FlightAware
07:53AM 38.9840 18.0530 114° Southeast 556 640 37,000  Level FlightAware
07:54AM 38.9340 18.2020 113° Southeast 556 640 37,000  Level FlightAware
07:55AM 38.8890 18.3370 113° Southeast 556 640 37,000  Level FlightAware
07:55AM 38.8360 18.4840 115° Southeast 552 635 37,000  Level FlightAware
07:56AM 38.7940 18.6060 114° Southeast 551 634 37,000  Level FlightAware
07:57AM 38.7530 18.7220 114° Southeast 549 632 37,000  Level FlightAware
07:57AM 38.7060 18.8570 114° Southeast 538 619 37,000  Level FlightAware
07:58AM 38.6660 18.9710 114° Southeast 536 617 37,000  Level FlightAware
07:59AM 38.6240 19.1040 112° Southeast 537 618 37,000  Level FlightAware
07:59AM 38.5890 19.2230 111° Southeast 538 619 37,000  Level FlightAware
08:00AM 38.5530 19.3420 111° Southeast 536 617 37,000  Level FlightAware
08:01AM 38.5110 19.4770 112° Southeast 536 617 37,000  Level FlightAware
08:01AM 38.4760 19.5920 111° Southeast 532 612 37,000  Level FlightAware
08:02AM 38.4380 19.7120 112° Southeast 533 613 37,000  Level FlightAware
08:03AM 38.3970 19.8440 112° Southeast 534 615 37,000  Level FlightAware
08:04AM 38.3580 19.9640 112° Southeast 536 617 37,000  Level FlightAware
08:04AM 38.3210 20.0820 112° Southeast 538 619 37,000  Level FlightAware
08:05AM 38.2790 20.2120 112° Southeast 538 619 37,000  Level FlightAware
08:06AM 38.2400 20.3330 112° Southeast 541 623 37,000  Level FlightAware
08:06AM 38.1980 20.4670 112° Southeast 543 625 37,000  Level FlightAware
08:07AM 38.1640 20.5880 110° East 553 636 37,000  Level FlightAware
08:08AM 38.1370 20.7300 104° East 553 636 37,000  Level FlightAware
08:08AM 38.1140 20.8530 103° East 554 638 37,000  Level FlightAware
08:09AM 38.0890 20.9820 104° East 554 638 37,000  Level FlightAware
08:10AM 38.0610 21.1240 104° East 554 638 37,000  Level FlightAware
08:11AM 38.0380 21.2350 105° East 553 636 37,000  Level FlightAware
08:11AM 38.0040 21.4080 104° East 555 639 37,000  Level FlightAware
08:12AM 37.9750 21.5470 105° East 555 639 37,000  Level FlightAware
08:13AM 37.9480 21.6760 105° East 556 640 37,000  Level FlightAware
08:14AM 37.9090 21.8080 110° East 550 633 37,000  Level FlightAware
08:14AM 37.8660 21.9250 115° Southeast 550 633 37,000  Level FlightAware
08:15AM 37.8250 22.0430 114° Southeast 550 633 37,000  Level FlightAware
08:16AM 37.7800 22.1760 113° Southeast 551 634 37,000  Level FlightAware
08:16AM 37.7370 22.2960 114° Southeast 552 635 37,000  Level FlightAware
08:17AM 37.6930 22.4230 114° Southeast 552 635 37,000  Level FlightAware
08:18AM 37.6530 22.5350 114° Southeast 551 634 37,000  Level FlightAware
08:18AM 37.6040 22.6720 114° Southeast 551 634 37,000  Level FlightAware
08:19AM 37.5600 22.7880 116° Southeast 551 634 37,000  Level FlightAware
08:20AM 37.5130 22.9160 115° Southeast 551 634 37,000  Level FlightAware
08:20AM 37.4720 23.0270 115° Southeast 549 632 37,000  Level FlightAware
08:21AM 37.4240 23.1570 115° Southeast 549 632 37,000  Level FlightAware
08:22AM 37.3790 23.2780 115° Southeast 548 631 37,000  Level FlightAware
08:23AM 37.3320 23.4020 115° Southeast 548 631 37,000  Level FlightAware
08:23AM 37.2880 23.5200 115° Southeast 548 631 37,000  Level FlightAware
08:24AM 37.2400 23.6470 115° Southeast 549 632 37,000  Level FlightAware
08:25AM 37.2010 23.7510 115° Southeast 550 633 37,000  Level FlightAware
08:25AM 37.1490 23.8860 116° Southeast 550 633 37,000  Level FlightAware
08:26AM 37.1050 24.0030 115° Southeast 549 632 37,000  Level FlightAware
08:27AM 37.0620 24.1150 116° Southeast 548 631 37,000  Level FlightAware
08:28AM 37.0130 24.2410 116° Southeast 549 632 37,000  Level FlightAware
08:28AM 36.9680 24.3580 116° Southeast 550 633 37,000  Level FlightAware
08:29AM 36.9210 24.4810 116° Southeast 550 633 37,000 480 Level FlightAware
08:30AM 36.8750 24.5960 117° Southeast 552 635 37,700 960 Climbing FlightAware
08:30AM 36.8250 24.7250 116° Southeast 555 639 38,400 900 Climbing FlightAware
08:31AM 36.7780 24.8460 116° Southeast 556 640 39,000 420 Climbing FlightAware
08:32AM 36.7330 24.9580 117° Southeast 555 639 39,000  Level FlightAware
08:32AM 36.6840 25.0840 116° Southeast 555 639 39,000  Level FlightAware
08:33AM 36.6370 25.2020 116° Southeast 553 636 39,000  Level FlightAware
08:34AM 36.5880 25.3270 116° Southeast 552 635 39,000  Level FlightAware
08:34AM 36.5430 25.4370 117° Southeast 551 634 39,000  Level FlightAware
08:35AM 36.4930 25.5620 116° Southeast 551 634 39,000  Level FlightAware
08:36AM 36.4460 25.6780 117° Southeast 552 635 39,000  Level FlightAware
08:37AM 36.4000 25.7940 116° Southeast 553 636 39,000  Level FlightAware
08:37AM 36.3550 25.9050 117° Southeast 554 638 39,000  Level FlightAware
08:38AM 36.2990 26.0410 117° Southeast 556 640 39,000  Level FlightAware
08:39AM 36.2530 26.1530 117° Southeast 559 643 39,000  Level FlightAware
08:39AM 36.2010 26.2810 117° Southeast 561 646 39,000  Level FlightAware
08:40AM 36.1350 26.4420 117° Southeast 564 649 39,000  Level FlightAware
08:41AM 36.0890 26.5540 117° Southeast 565 650 39,000  Level FlightAware
08:42AM 36.0360 26.6810 117° Southeast 569 655 39,000  Level FlightAware
08:42AM 35.9890 26.7910 118° Southeast 572 658 39,000  Level FlightAware
08:43AM 35.9500 26.8860 117° Southeast 573 659 39,000  Level FlightAware
08:44AM 35.8910 27.0260 117° Southeast 575 662 39,000  Level FlightAware
08:45AM 35.8300 27.1720 117° Southeast 576 663 39,000  Level FlightAware
08:46AM 35.7690 27.3140 118° Southeast 577 664 39,000  Level FlightAware
08:46AM 35.7150 27.4400 118° Southeast 578 665 39,000  Level FlightAware
08:47AM 35.6630 27.5670 117° Southeast 578 665 39,000  Level FlightAware
08:48AM 35.6260 27.6570 117° Southeast 578 665 39,000  Level FlightAware
08:49AM 35.5630 27.8080 117° Southeast 578 665 39,000  Level FlightAware
08:49AM 35.4860 27.9740 120° Southeast 579 666 39,000  Level FlightAware
08:50AM 35.4280 28.1100 118° Southeast 579 666 39,000  Level FlightAware
08:51AM 35.3760 28.2290 118° Southeast 580 667 39,000  Level FlightAware
08:51AM 35.3210 28.3540 118° Southeast 580 667 39,000  Level FlightAware
08:52AM 35.2670 28.4780 118° Southeast 580 667 39,000  Level FlightAware
08:53AM 35.2180 28.5910 118° Southeast 581 669 39,000  Level FlightAware
08:53AM 35.1620 28.7150 119° Southeast 581 669 39,000  Level FlightAware
08:54AM 35.0970 28.8620 118° Southeast 582 670 39,000  Level FlightAware
08:55AM 35.0540 28.9610 118° Southeast 582 670 39,000  Level FlightAware
08:56AM 34.9630 29.1620 119° Southeast 581 669 39,000  Level FlightAware
08:57AM 34.9120 29.2740 119° Southeast 582 670 39,000  Level FlightAware
08:57AM 34.8550 29.4030 118° Southeast 581 669 39,000  Level FlightAware
08:59AM 34.7690 29.5940 119° Southeast 574 661 39,000  Level FlightAware
08:59AM 34.7000 29.7420 120° Southeast 574 661 39,000  Level FlightAware
09:00AM 34.6480 29.8590 118° Southeast 574 661 39,000  Level FlightAware
09:01AM 34.5970 29.9750 118° Southeast 574 661 39,000  Level FlightAware
09:02AM 34.5170 30.1340 121° Southeast 578 665 39,000  Level FlightAware
09:02AM 34.4560 30.2640 120° Southeast 579 666 39,000  Level FlightAware
09:03AM 34.3950 30.3900 120° Southeast 579 666 39,000  Level FlightAware
09:04AM 34.3400 30.5020 121° Southeast 579 666 39,000  Level FlightAware
09:05AM 34.2800 30.6280 120° Southeast 579 666 39,000  Level FlightAware
09:05AM 34.2260 30.7390 120° Southeast 579 666 39,000  Level FlightAware
09:06AM 34.1720 30.8510 120° Southeast 578 665 39,000  Level FlightAware
09:07AM 34.1100 30.9790 120° Southeast 577 664 39,000  Level FlightAware
09:07AM 34.0600 31.0780 121° Southeast 577 664 39,000  Level FlightAware
09:08AM 33.9960 31.2110 120° Southeast 577 664 39,000  Level FlightAware
09:09AM 33.9480 31.3080 121° Southeast 577 664 39,000  Level FlightAware
09:10AM 33.8860 31.4350 120° Southeast 576 663 39,000  Level FlightAware
09:10AM 33.8300 31.5450 121° Southeast 572 658 39,000  Level FlightAware
09:11AM 33.7550 31.7010 120° Southeast 575 662 39,000  Level FlightAware
09:12AM 33.6940 31.8190 122° Southeast 569 655 39,000  Level FlightAware
09:13AM 33.6320 31.9420 121° Southeast 572 658 39,000  Level FlightAware
09:13AM 33.5790 32.0470 121° Southeast 570 656 39,000  Level FlightAware
09:14AM 33.5240 32.1580 121° Southeast 568 654 39,000  Level FlightAware
09:15AM 33.4690 32.2660 121° Southeast 567 652 39,000 -180 Level FlightAware
09:15AM 33.4100 32.3840 121° Southeast 563 648 38,800 -1,260 Descending FlightAware
09:16AM 33.3460 32.5080 122° Southeast 556 640 37,100 -2,280 Descending FlightAware
09:17AM 33.2940 32.6120 121° Southeast 552 635 35,600 -2,280 Descending FlightAware
09:17AM 33.2410 32.7150 122° Southeast 540 621 34,100 -2,160 Descending FlightAware
09:18AM 33.1910 32.8100 122° Southeast 534 615 32,700 -2,160 Descending FlightAware
09:19AM 33.1370 32.9170 121° Southeast 529 609 31,200 -2,280 Descending FlightAware
09:20AM 33.0790 33.0280 122° Southeast 518 596 29,500 -2,280 Descending FlightAware
09:20AM 33.0220 33.1380 122° Southeast 505 581 27,900 -2,220 Descending FlightAware
09:21AM 32.9730 33.2320 122° Southeast 492 566 26,500 -2,040 Descending FlightAware
09:22AM 32.9220 33.3300 122° Southeast 473 544 25,100 -1,740 Descending FlightAware
09:22AM 32.8760 33.4190 122° Southeast 437 503 24,000 -2,160 Descending FlightAware
09:23AM 32.8290 33.5080 122° Southeast 417 480 22,000 -2,280 Descending FlightAware
09:24AM 32.7880 33.5860 122° Southeast 397 457 20,800 -1,800 Descending FlightAware
09:24AM 32.7500 33.6600 121° Southeast 390 449 19,600 -1,800 Descending FlightAware
09:25AM 32.7100 33.7350 122° Southeast 385 443 18,400 -1,680 Descending FlightAware
09:26AM 32.6720 33.8080 122° Southeast 378 435 17,300 -1,620 Descending FlightAware
09:27AM 32.6300 33.8870 122° Southeast 371 427 16,100 -1,680 Descending FlightAware
09:27AM 32.5950 33.9540 122° Southeast 367 422 15,000 -1,500 Descending FlightAware
09:28AM 32.5570 34.0240 123° Southeast 350 403 14,100 -1,440 Descending FlightAware
09:29AM 32.5220 34.0910 122° Southeast 336 387 13,000 -1,800 Descending FlightAware
09:29AM 32.4850 34.1570 124° Southeast 331 381 11,600 -1,740 Descending FlightAware
09:30AM 32.4430 34.2110 133° Southeast 328 377 10,600 -780 Descending FlightAware
09:31AM 32.4090 34.2530 134° Southeast 328 377 10,600 -1,500 Level FlightAware
09:31AM 32.3630 34.3050 136° Southeast 323 372 8,800 -2,280 Descending FlightAware
09:32AM 32.3330 34.3400 135° Southeast 320 368 8,200 -1,320 Descending FlightAware
09:32AM 32.3050 34.3730 135° Southeast 316 364 7,600 -660 Descending FlightAware
09:33AM 32.2780 34.4030 137° Southeast 316 364 7,600 -660 Level FlightAware
09:35AM 32.1519 34.6697 132° Southeast  Level FlightAware Approximate
09:35AM 32.1590 34.5970 132° Southeast 5,000  Level FlightAware
09:36AM 32.1060 34.6940 123° Southeast 290 334 5,000  Level FlightAware
09:37AM 32.0940 34.7150 124° Southeast 291 335 5,000  Level FlightAware
09:37AM 32.0780 34.7450 122° Southeast 291 335 5,000  Level FlightAware
09:37AM 32.0940 34.7150 302° West 269 310 5,000  Level FlightAware
09:38AM 32.0780 34.7420 125° Southeast 269 310 5,000 -480 Level FlightAware
09:38AM 32.0140 34.8290 131° Southeast 253 291 4,500 -540 Descending FlightAware
09:39AM 31.9870 34.8580 138° Southeast 234 269 4,400 -840 Descending FlightAware
09:39AM 31.9730 34.8920 116° Southeast 205 236 3,700 -1,200 Descending FlightAware
09:40AM 31.9790 34.9220 77° East 176 203 3,200 -720 Descending FlightAware
09:40AM 31.9850 34.9480 75° East 171 197 3,000 -420 Descending FlightAware
09:43AM 32.0000 34.8667 131° Southeast  Level FlightAware Approximate
09:44AM 32.0095 34.8769 131° Southeast  Level Estimated
09:45AM 32.0095 34.8769 131° Southeast  Level Estimated